Time,TemperatureF,DewpointF,PressureIn,WindDirection,WindDirectionDegrees,WindSpeedMPH,WindSpeedGustMPH,Humidity,HourlyPrecipIn,Conditions,Clouds,dailyrainin,SoftwareType,DateUTC
2013-03-06 00:01:00,25.0,16.0,30.26,South,170,18.0,34.0,68,0.00,,,0.00,,2013-03-06 07:01:00,
2013-03-06 00:11:00,25.0,16.0,30.26,South,170,18.0,34.0,68,0.00,,,0.00,,2013-03-06 07:11:00,
2013-03-06 00:21:00,24.0,17.0,30.27,South,177,17.0,29.0,73,0.00,,,0.00,,2013-03-06 07:21:00,
2013-03-06 00:31:00,24.0,16.0,30.27,South,180,18.0,34.0,71,0.00,,,0.00,,2013-03-06 07:31:00,
2013-03-06 00:41:00,24.0,16.0,30.27,South,180,18.0,34.0,71,0.00,,,0.00,,2013-03-06 07:41:00,
2013-03-06 00:52:00,24.0,16.0,30.27,South,179,12.0,26.0,70,0.00,,,0.00,,2013-03-06 07:52:00,
2013-03-06 01:01:00,24.0,16.0,30.27,South,170,17.0,27.0,70,0.00,,,0.00,,2013-03-06 08:01:00,
2013-03-06 01:11:00,24.0,16.0,30.27,South,170,17.0,27.0,70,0.00,,,0.00,,2013-03-06 08:11:00,
2013-03-06 01:21:00,24.0,17.0,30.27,South,181,18.0,26.0,73,0.00,,,0.00,,2013-03-06 08:21:00,
2013-03-06 01:31:00,24.0,17.0,30.26,South,178,18.0,27.0,74,0.00,,,0.00,,2013-03-06 08:31:00,
2013-03-06 01:41:00,24.0,17.0,30.26,South,178,18.0,27.0,74,0.00,,,0.00,,2013-03-06 08:41:00,
2013-03-06 01:52:00,24.0,14.0,30.26,South,178,18.0,27.0,66,0.00,,,0.00,,2013-03-06 08:52:00,
2013-03-06 02:01:00,24.0,14.0,30.26,South,180,18.0,30.0,65,0.00,,,0.00,,2013-03-06 09:01:00,
2013-03-06 02:12:00,24.0,14.0,30.26,South,180,18.0,30.0,65,0.00,,,0.00,,2013-03-06 09:12:00,
2013-03-06 02:21:00,23.0,13.0,30.25,South,177,15.0,29.0,65,0.00,,,0.00,,2013-03-06 09:21:00,
2013-03-06 02:31:00,23.0,14.0,30.25,South,180,15.0,23.0,69,0.00,,,0.00,,2013-03-06 09:31:00,
2013-03-06 02:41:00,23.0,14.0,30.25,South,180,15.0,23.0,69,0.00,,,0.00,,2013-03-06 09:41:00,
2013-03-06 02:52:00,23.0,13.0,30.24,South,178,16.0,28.0,65,0.00,,,0.00,,2013-03-06 09:52:00,
2013-03-06 03:01:00,23.0,14.0,30.23,South,171,14.0,22.0,67,0.00,,,0.00,,2013-03-06 10:01:00,
2013-03-06 03:11:00,23.0,14.0,30.23,South,171,14.0,22.0,67,0.00,,,0.00,,2013-03-06 10:11:00,
2013-03-06 03:21:00,23.0,12.0,30.23,South,181,15.0,24.0,63,0.00,,,0.00,,2013-03-06 10:21:00,
2013-03-06 03:31:00,22.0,11.0,30.21,South,180,13.0,23.0,63,0.00,,,0.00,,2013-03-06 10:31:00,
2013-03-06 03:41:00,22.0,11.0,30.21,South,180,13.0,23.0,63,0.00,,,0.00,,2013-03-06 10:41:00,
2013-03-06 03:52:00,22.0,13.0,30.21,South,179,17.0,24.0,67,0.00,,,0.00,,2013-03-06 10:52:00,
2013-03-06 04:01:00,22.0,16.0,30.21,South,176,12.0,27.0,79,0.00,,,0.00,,2013-03-06 11:01:00,
2013-03-06 04:11:00,22.0,16.0,30.21,South,176,12.0,27.0,79,0.00,,,0.00,,2013-03-06 11:11:00,
2013-03-06 04:22:00,21.0,16.0,30.21,South,183,17.0,24.0,81,0.00,,,0.00,,2013-03-06 11:22:00,
2013-03-06 04:31:00,21.0,17.0,30.21,South,178,13.0,25.0,85,0.00,,,0.00,,2013-03-06 11:31:00,
2013-03-06 04:42:00,21.0,17.0,30.21,South,178,13.0,25.0,85,0.00,,,0.00,,2013-03-06 11:42:00,
2013-03-06 04:52:00,21.0,17.0,30.21,South,184,12.0,21.0,84,0.00,,,0.00,,2013-03-06 11:52:00,
2013-03-06 05:01:00,21.0,16.0,30.21,SSE,168,11.0,18.0,81,0.00,,,0.00,,2013-03-06 12:01:00,
2013-03-06 05:11:00,21.0,16.0,30.21,SSE,168,11.0,18.0,81,0.00,,,0.00,,2013-03-06 12:11:00,
2013-03-06 05:21:00,21.0,18.0,30.21,South,179,14.0,22.0,87,0.00,,,0.00,,2013-03-06 12:21:00,
2013-03-06 05:32:00,22.0,12.0,30.22,South,175,14.0,21.0,64,0.00,,,0.00,,2013-03-06 12:32:00,
2013-03-06 05:42:00,22.0,12.0,30.22,South,175,14.0,21.0,64,0.00,,,0.00,,2013-03-06 12:42:00,
2013-03-06 05:52:00,21.0,14.0,30.19,South,175,13.0,24.0,74,0.00,,,0.00,,2013-03-06 12:52:00,
2013-03-06 06:01:00,23.0,8.0,30.20,South,184,18.0,25.0,53,0.00,,,0.00,,2013-03-06 13:01:00,
2013-03-06 06:11:00,23.0,8.0,30.20,South,184,18.0,25.0,53,0.00,,,0.00,,2013-03-06 13:11:00,
2013-03-06 06:21:00,21.0,12.0,30.20,South,179,14.0,23.0,67,0.00,,,0.00,,2013-03-06 13:21:00,
2013-03-06 06:31:00,21.0,12.0,30.20,South,179,13.0,21.0,69,0.00,,,0.00,,2013-03-06 13:31:00,
2013-03-06 06:41:00,21.0,12.0,30.20,South,179,13.0,21.0,69,0.00,,,0.00,,2013-03-06 13:41:00,
2013-03-06 06:52:00,22.0,10.0,30.21,South,180,14.0,22.0,58,0.00,,,0.00,,2013-03-06 13:52:00,
2013-03-06 07:01:00,22.0,8.0,30.22,South,177,13.0,23.0,53,0.00,,,0.00,,2013-03-06 14:01:00,
2013-03-06 07:11:00,22.0,8.0,30.22,South,177,13.0,23.0,53,0.00,,,0.00,,2013-03-06 14:11:00,
2013-03-06 07:21:00,21.0,12.0,30.21,South,178,13.0,24.0,67,0.00,,,0.00,,2013-03-06 14:21:00,
2013-03-06 07:31:00,21.0,12.0,30.21,South,182,13.0,19.0,69,0.00,,,0.00,,2013-03-06 14:31:00,
2013-03-06 07:41:00,21.0,12.0,30.21,South,182,13.0,19.0,69,0.00,,,0.00,,2013-03-06 14:41:00,
2013-03-06 07:52:00,20.0,15.0,30.21,South,176,12.0,17.0,82,0.00,,,0.00,,2013-03-06 14:52:00,
2013-03-06 08:01:00,20.0,16.0,30.22,South,178,13.0,20.0,83,0.00,,,0.00,,2013-03-06 15:01:00,
2013-03-06 08:11:00,20.0,16.0,30.22,South,178,13.0,20.0,83,0.00,,,0.00,,2013-03-06 15:11:00,
2013-03-06 08:21:00,22.0,8.0,30.22,South,188,16.0,29.0,54,0.00,,,0.00,,2013-03-06 15:21:00,
2013-03-06 08:32:00,22.0,5.0,30.23,SSW,193,18.0,26.0,48,0.00,,,0.00,,2013-03-06 15:32:00,
2013-03-06 08:41:00,22.0,5.0,30.23,SSW,193,18.0,26.0,48,0.00,,,0.00,,2013-03-06 15:41:00,
2013-03-06 08:52:00,23.0,6.0,30.24,SSW,192,17.0,28.0,48,0.00,,,0.00,,2013-03-06 15:52:00,
2013-03-06 09:01:00,23.0,11.0,30.24,SSW,194,11.0,25.0,60,0.00,,,0.00,,2013-03-06 16:01:00,
2013-03-06 09:11:00,23.0,11.0,30.24,SSW,194,11.0,25.0,60,0.00,,,0.00,,2013-03-06 16:11:00,
2013-03-06 09:21:00,23.0,9.0,30.24,SSW,194,14.0,24.0,54,0.00,,,0.00,,2013-03-06 16:21:00,
2013-03-06 09:32:00,25.0,7.0,30.24,SSW,202,9.0,23.0,45,0.00,,,0.00,,2013-03-06 16:32:00,
2013-03-06 09:41:00,25.0,7.0,30.24,SSW,202,9.0,23.0,45,0.00,,,0.00,,2013-03-06 16:41:00,
2013-03-06 09:51:00,25.0,8.0,30.24,SSW,210,11.0,27.0,48,0.00,,,0.00,,2013-03-06 16:51:00,
2013-03-06 10:01:00,26.0,11.0,30.24,SSW,199,14.0,21.0,53,0.00,,,0.00,,2013-03-06 17:01:00,
2013-03-06 10:11:00,26.0,11.0,30.24,SSW,199,14.0,21.0,53,0.00,,,0.00,,2013-03-06 17:11:00,
2013-03-06 10:21:00,26.0,11.0,30.24,SSW,201,12.0,26.0,53,0.00,,,0.00,,2013-03-06 17:21:00,
2013-03-06 10:31:00,27.0,8.0,30.25,SSW,199,14.0,23.0,44,0.00,,,0.00,,2013-03-06 17:31:00,
2013-03-06 10:41:00,27.0,8.0,30.25,SSW,199,14.0,23.0,44,0.00,,,0.00,,2013-03-06 17:41:00,
2013-03-06 10:52:00,27.0,6.0,30.25,SSW,193,12.0,22.0,41,0.00,,,0.00,,2013-03-06 17:52:00,
2013-03-06 11:01:00,27.0,10.0,30.26,South,188,10.0,22.0,49,0.00,,,0.00,,2013-03-06 18:01:00,
2013-03-06 11:28:00,27.0,13.0,30.25,SW,216,7.0,17.0,54,0.00,,,0.00,,2013-03-06 18:28:00,
2013-03-06 11:41:00,29.0,12.0,30.25,SSW,199,11.0,18.0,48,0.00,,,0.00,,2013-03-06 18:41:00,
2013-03-06 11:52:00,29.0,14.0,30.24,SSW,203,12.0,19.0,52,0.00,,,0.00,,2013-03-06 18:52:00,
2013-03-06 12:01:00,29.0,15.0,30.23,SSW,201,9.0,23.0,55,0.00,,,0.00,,2013-03-06 19:01:00,
2013-03-06 12:11:00,29.0,15.0,30.23,SSW,201,9.0,23.0,55,0.00,,,0.00,,2013-03-06 19:11:00,
2013-03-06 12:21:00,28.0,14.0,30.23,SSW,197,13.0,22.0,56,0.00,,,0.00,,2013-03-06 19:21:00,
2013-03-06 12:31:00,29.0,17.0,30.23,SSW,195,13.0,24.0,61,0.00,,,0.00,,2013-03-06 19:31:00,
2013-03-06 12:42:00,29.0,17.0,30.23,SSW,195,13.0,24.0,61,0.00,,,0.00,,2013-03-06 19:42:00,
2013-03-06 12:52:00,30.0,17.0,30.23,SSW,201,13.0,23.0,58,0.00,,,0.00,,2013-03-06 19:52:00,
2013-03-06 13:01:00,30.0,17.0,30.22,SSW,192,13.0,21.0,57,0.00,,,0.00,,2013-03-06 20:01:00,
2013-03-06 13:11:00,30.0,17.0,30.22,SSW,192,13.0,21.0,57,0.00,,,0.00,,2013-03-06 20:11:00,
2013-03-06 13:21:00,29.0,18.0,30.22,SSW,203,14.0,25.0,62,0.00,,,0.00,,2013-03-06 20:21:00,
2013-03-06 13:31:00,30.0,19.0,30.20,SSW,194,14.0,25.0,62,0.00,,,0.00,,2013-03-06 20:31:00,
2013-03-06 13:41:00,30.0,19.0,30.20,SSW,194,14.0,25.0,62,0.00,,,0.00,,2013-03-06 20:41:00,
2013-03-06 13:52:00,30.0,20.0,30.20,SSW,193,14.0,23.0,67,0.00,,,0.00,,2013-03-06 20:52:00,
2013-03-06 14:01:00,29.0,19.0,30.19,SSW,209,15.0,24.0,67,0.00,,,0.00,,2013-03-06 21:01:00,
2013-03-06 14:11:00,29.0,19.0,30.19,SSW,209,15.0,24.0,67,0.00,,,0.00,,2013-03-06 21:11:00,
2013-03-06 14:21:00,30.0,19.0,30.19,South,172,15.0,27.0,62,0.00,,,0.00,,2013-03-06 21:21:00,
2013-03-06 14:31:00,30.0,19.0,30.17,South,191,17.0,28.0,63,0.00,,,0.00,,2013-03-06 21:31:00,
2013-03-06 14:41:00,30.0,19.0,30.17,South,191,17.0,28.0,63,0.00,,,0.00,,2013-03-06 21:41:00,
2013-03-06 14:52:00,31.0,20.0,30.17,SSW,195,16.0,29.0,62,0.00,,,0.00,,2013-03-06 21:52:00,
2013-03-06 15:01:00,31.0,20.0,30.17,SSW,197,18.0,30.0,64,0.00,,,0.00,,2013-03-06 22:01:00,
2013-03-06 15:11:00,31.0,20.0,30.17,SSW,197,18.0,30.0,64,0.00,,,0.00,,2013-03-06 22:11:00,
2013-03-06 15:21:00,31.0,19.0,30.18,SSW,197,16.0,31.0,60,0.00,,,0.00,,2013-03-06 22:21:00,
2013-03-06 15:31:00,31.0,18.0,30.18,SSW,192,18.0,38.0,59,0.00,,,0.00,,2013-03-06 22:31:00,
2013-03-06 15:41:00,31.0,18.0,30.18,SSW,192,18.0,38.0,59,0.00,,,0.00,,2013-03-06 22:41:00,
2013-03-06 15:52:00,31.0,18.0,30.18,South,190,18.0,30.0,59,0.00,,,0.00,,2013-03-06 22:52:00,
2013-03-06 16:01:00,31.0,18.0,30.17,SSW,195,19.0,38.0,57,0.00,,,0.00,,2013-03-06 23:01:00,
2013-03-06 16:11:00,31.0,18.0,30.17,SSW,195,19.0,38.0,57,0.00,,,0.00,,2013-03-06 23:11:00,
2013-03-06 16:21:00,32.0,20.0,30.17,South,190,15.0,28.0,60,0.00,,,0.00,,2013-03-06 23:21:00,
2013-03-06 16:31:00,32.0,19.0,30.17,South,190,19.0,35.0,59,0.00,,,0.00,,2013-03-06 23:31:00,
2013-03-06 16:41:00,32.0,19.0,30.17,South,189,19.0,33.0,59,0.00,,,0.00,,2013-03-06 23:41:00,
2013-03-06 16:52:00,32.0,19.0,30.17,South,189,19.0,33.0,59,0.00,,,0.00,,2013-03-06 23:52:00,
2013-03-06 17:01:00,31.0,18.0,30.17,SSW,203,17.0,32.0,57,0.00,,,0.00,,2013-03-07 00:01:00,
2013-03-06 17:11:00,31.0,18.0,30.17,SSW,203,17.0,32.0,57,0.00,,,0.00,,2013-03-07 00:11:00,
2013-03-06 17:21:00,32.0,20.0,30.16,South,188,18.0,29.0,62,0.00,,,0.00,,2013-03-07 00:21:00,
2013-03-06 17:31:00,31.0,19.0,30.17,South,189,15.0,34.0,61,0.00,,,0.00,,2013-03-07 00:31:00,
2013-03-06 17:41:00,31.0,19.0,30.17,South,189,15.0,34.0,61,0.00,,,0.00,,2013-03-07 00:41:00,
2013-03-06 17:52:00,31.0,20.0,30.16,South,185,19.0,29.0,63,0.00,,,0.00,,2013-03-07 00:52:00,
2013-03-06 18:01:00,30.0,17.0,30.16,South,187,18.0,31.0,58,0.00,,,0.00,,2013-03-07 01:01:00,
2013-03-06 18:11:00,30.0,17.0,30.16,South,187,18.0,31.0,58,0.00,,,0.00,,2013-03-07 01:11:00,
2013-03-06 18:21:00,29.0,16.0,30.16,South,189,15.0,29.0,57,0.00,,,0.00,,2013-03-07 01:21:00,
2013-03-06 18:31:00,28.0,15.0,30.17,South,184,13.0,25.0,58,0.00,,,0.00,,2013-03-07 01:31:00,
2013-03-06 18:41:00,28.0,15.0,30.17,South,184,13.0,25.0,58,0.00,,,0.00,,2013-03-07 01:41:00,
2013-03-06 18:52:00,26.0,14.0,30.17,South,185,16.0,25.0,60,0.00,,,0.00,,2013-03-07 01:52:00,
2013-03-06 19:01:00,26.0,14.0,30.17,South,187,15.0,26.0,60,0.00,,,0.00,,2013-03-07 02:01:00,
2013-03-06 19:11:00,26.0,14.0,30.17,South,187,15.0,26.0,60,0.00,,,0.00,,2013-03-07 02:11:00,
2013-03-06 19:21:00,26.0,14.0,30.17,South,185,15.0,24.0,61,0.00,,,0.00,,2013-03-07 02:21:00,
2013-03-06 19:31:00,25.0,13.0,30.17,South,188,13.0,22.0,61,0.00,,,0.00,,2013-03-07 02:31:00,
2013-03-06 19:41:00,25.0,13.0,30.17,South,188,13.0,22.0,61,0.00,,,0.00,,2013-03-07 02:41:00,
2013-03-06 19:52:00,25.0,13.0,30.17,South,188,13.0,22.0,61,0.00,,,0.00,,2013-03-07 02:52:00,
2013-03-06 20:01:00,24.0,14.0,30.16,SSW,194,15.0,22.0,64,0.00,,,0.00,,2013-03-07 03:01:00,
2013-03-06 20:11:00,24.0,15.0,30.17,South,190,17.0,27.0,67,0.00,,,0.00,,2013-03-07 03:11:00,
2013-03-06 20:21:00,24.0,15.0,30.17,South,190,17.0,27.0,67,0.00,,,0.00,,2013-03-07 03:21:00,
2013-03-06 20:31:00,23.0,15.0,30.17,SSW,195,15.0,23.0,71,0.00,,,0.00,,2013-03-07 03:31:00,
2013-03-06 20:41:00,23.0,15.0,30.17,SSW,195,15.0,23.0,71,0.00,,,0.00,,2013-03-07 03:41:00,
2013-03-06 20:52:00,23.0,16.0,30.15,SSW,192,16.0,23.0,73,0.00,,,0.00,,2013-03-07 03:52:00,
2013-03-06 21:01:00,23.0,16.0,30.16,South,189,14.0,22.0,73,0.00,,,0.00,,2013-03-07 04:01:00,
2013-03-06 21:11:00,23.0,16.0,30.16,South,189,14.0,22.0,73,0.00,,,0.00,,2013-03-07 04:11:00,
2013-03-06 21:21:00,23.0,16.0,30.16,South,191,15.0,24.0,74,0.00,,,0.00,,2013-03-07 04:21:00,
2013-03-06 21:31:00,23.0,17.0,30.16,South,190,13.0,23.0,76,0.00,,,0.00,,2013-03-07 04:31:00,
2013-03-06 21:41:00,23.0,17.0,30.16,South,190,13.0,23.0,76,0.00,,,0.00,,2013-03-07 04:41:00,
2013-03-06 21:52:00,22.0,16.0,30.16,South,186,14.0,21.0,78,0.00,,,0.00,,2013-03-07 04:52:00,
2013-03-06 22:01:00,22.0,17.0,30.16,South,183,13.0,20.0,80,0.00,,,0.00,,2013-03-07 05:01:00,
2013-03-06 22:12:00,22.0,17.0,30.16,South,183,13.0,20.0,80,0.00,,,0.00,,2013-03-07 05:12:00,
2013-03-06 22:22:00,22.0,16.0,30.16,South,179,14.0,19.0,78,0.00,,,0.00,,2013-03-07 05:22:00,
2013-03-06 22:31:00,22.0,16.0,30.16,South,183,12.0,21.0,76,0.00,,,0.00,,2013-03-07 05:31:00,
2013-03-06 22:41:00,22.0,16.0,30.16,South,183,12.0,21.0,76,0.00,,,0.00,,2013-03-07 05:41:00,
2013-03-06 22:52:00,22.0,17.0,30.16,South,185,13.0,18.0,80,0.00,,,0.00,,2013-03-07 05:52:00,
2013-03-06 23:01:00,21.0,16.0,30.16,South,187,13.0,19.0,82,0.00,,,0.00,,2013-03-07 06:01:00,
2013-03-06 23:11:00,21.0,16.0,30.16,South,187,13.0,19.0,82,0.00,,,0.00,,2013-03-07 06:11:00,
2013-03-06 23:21:00,22.0,17.0,30.15,South,187,15.0,21.0,80,0.00,,,0.00,,2013-03-07 06:21:00,
2013-03-06 23:31:00,22.0,16.0,30.14,South,182,15.0,22.0,76,0.00,,,0.00,,2013-03-07 06:31:00,
2013-03-06 23:41:00,22.0,15.0,30.14,South,183,15.0,20.0,73,0.00,,,0.00,,2013-03-07 06:41:00,
2013-03-06 23:52:00,22.0,15.0,30.14,South,183,15.0,20.0,73,0.00,,,0.00,,2013-03-07 06:52:00,